Temp
8 8 9 9 8 8 8 9 9 10 10 10 10 11 10 11 10 10 10 9 8 8 6 6 6 6 5 6 6 6 6 5 5 5 5 4 3 3 3 2 1 1 0 0
7 8 8 8 8 8 8 9 9 9 9 9 10 10 10 10 10 10 9 8 8 7 7 6 5 6 6 5 5 5 5 5 4 4 3 3 3 2 1 1 0 -0 -1 -1
7 8 8 8 8 8 8 8 9 8 9 9 9 9 9 8 8 8 7 7 7 6 5 5 5 5 5 5 5 5 4 4 3 3 3 3 2 1 0 -1 -1 -1 -2 -2
7 8 8 8 8 8 8 8 8 8 8 8 8 8 8 6 7 6 6 5 5 5 5 5 5 5 5 5 5 4 3 3 3 2 2 2 1 -0 -1 -2 -2 -2 -2 -3
7 7 7 8 8 8 8 8 8 8 8 8 8 8 4 5 5 4 4 4 5 5 5 5 4 4 5 5 4 4 3 3 2 2 1 1 -0 -1 -2 -2 -2 -3 -3 -3
7 7 7 7 8 8 8 8 8 8 8 7 7 8 5 5 5 5 5 5 5 5 4 4 4 4 4 4 3 3 2 2 1 1 -0 -0 -1 -2 -2 -3 -3 -3 -3 -3
7 8 8 7 7 7 8 7 7 6 5 5 7 7 5 4 4 4 5 4 3 4 4 3 4 4 3 3 2 2 2 1 1 1 1 0 0 -1 -1 -2 -2 -2 -2 -2
7 7 8 8 7 7 7 7 7 5 4 6 6 4 5 5 5 4 3 3 3 3 4 3 3 3 3 2 2 2 1 0 0 0 -0 -1 -1 -1 -1 -2 -2 -3 -3 -3
7 7 7 7 7 7 7 7 7 7 7 6 5 3 3 4 4 3 2 3 2 3 2 3 3 2 2 2 1 1 0 0 0 -0 -2 -3 -3 -3 -3 -3 -3 -3 -4 -4
6 7 7 7 7 7 6 7 7 6 4 4 4 4 4 4 3 2 2 2 3 3 3 3 2 1 2 1 1 1 0 -0 -1 -2 -3 -3 -4 -3 -3 -3 -4 -4 -4 -4
6 6 6 6 6 6 6 6 6 6 5 1 -1 4 5 5 4 3 3 3 3 3 3 2 2 2 1 1 0 -0 -1 -1 -2 -3 -3 -4 -4 -4 -4 -4 -4 -4 -4 -5
6 6 6 5 6 5 6 6 5 5 4 4 4 5 4 4 4 3 3 3 3 3 2 2 2 1 1 0 -1 -1 -2 -2 -3 -3 -3 -3 -3 -4 -4 -4 -5 -5 -6 -6
5 5 5 5 5 5 5 5 5 5 5 4 2 4 4 4 3 3 3 3 2 2 2 2 1 0 0 -1 -2 -2 -2 -3 -3 -3 -3 -3 -4 -4 -4 -5 -5 -6 -6 -7
4 4 4 4 4 4 4 5 4 4 4 4 4 4 4 4 3 3 3 3 3 2 2 1 0 1 -0 -1 -2 -2 -3 -3 -3 -3 -3 -4 -4 -4 -5 -5 -6 -7 -7 -8
3 4 4 4 3 3 3 4 4 4 3 3 4 3 4 4 3 3 3 3 2 1 1 0 1 0 -1 -2 -2 -3 -3 -3 -3 -3 -4 -4 -4 -5 -6 -6 -7 -7 -8 -8
3 3 3 3 3 2 3 3 3 3 3 3 3 3 3 3 3 3 3 2 1 0 1 0 1 -0 -2 -3 -3 -3 -3 -3 -3 -4 -4 -5 -5 -6 -6 -7 -7 -8 -9 -9
2 1 1 1 2 2 2 5 4 3 3 3 3 4 3 3 3 3 2 1 1 1 1 1 0 -1 -2 -3 -4 -4 -3 -3 -4 -4 -5 -6 -6 -6 -7 -7 -8 -9 -9 -10
1 1 1 1 0 -3 4 3 3 3 2 3 4 3 3 3 2 2 2 1 1 1 1 0 -1 -2 -3 -4 -4 -4 -3 -4 -4 -5 -5 -6 -6 -7 -7 -8 -9 -9 -10 -11
1 1 -0 -0 -0 0 2 3 3 3 3 3 3 3 3 2 1 1 -0 0 0 0 0 -1 -1 -2 -3 -4 -4 -4 -4 -4 -5 -5 -6 -6 -7 -7 -8 -9 -9 -10 -11 -11
0 0 0 -1 -1 -2 1 1 2 2 3 3 3 2 2 2 1 0 0 0 0 0 -1 -1 -2 -3 -4 -3 -4 -4 -4 -5 -6 -6 -6 -7 -7 -8 -9 -9 -10 -11 -11 -12
0 -0 -0 -0 -1 -0 0 1 1 1 2 2 2 2 2 1 1 0 0 1 0 -0 -1 -1 -2 -3 -4 -4 -4 -4 -5 -5 -6 -6 -7 -7 -8 -9 -9 -10 -10 -11 -12 -13
1 0 -1 -1 -1 -1 1 1 1 2 1 1 1 1 0 0 -0 -0 -0 0 -0 -1 -1 -1 -2 -4 -4 -4 -4 -5 -5 -6 -6 -6 -7 -8 -8 -9 -10 -10 -11 -12 -12 -13
-0 0 0 -0 -0 1 0 1 1 1 1 0 0 0 0 -0 -0 -1 -1 -1 -1 -1 -1 -2 -3 -4 -4 -4 -4 -5 -6 -6 -6 -7 -7 -8 -9 -10 -10 -11 -12 -12 -13 -14
-0 -0 -0 -0 0 0 0 0 0 -0 -0 -0 -0 -0 -0 -1 -1 -1 -1 -1 -2 -2 -2 -3 -4 -4 -4 -4 -5 -6 -6 -6 -7 -7 -8 -9 -10 -10 -11 -11 -12 -13 -14 -15
-1 -0 -0 -0 -0 -0 -0 -0 -0 -1 -1 -1 -0 -0 -1 -1 -1 -2 -2 -2 -2 -2 -2 -3 -4 -4 -5 -5 -5 -6 -6 -7 -7 -8 -8 -9 -10 -11 -11 -12 -12 -13 -15 -16
-1 -1 -1 -1 -1 -0 -0 -0 -1 -1 -1 -2 -2 -1 -2 -2 -2 -2 -3 -3 -2 -3 -3 -4 -4 -5 -5 -6 -6 -6 -7 -7 -8 -8 -9 -10 -10 -11 -11 -12 -13 -14 -15 -16
Height
3168 3169 3170 3172 3173 3173 3173 3172 3172 3172 3173 3172 3173 3171 3170 3170 3169 3169 3169 3169 3167 3171 3173 3175 3172 3171 3171 3171 3170 3168 3166 3165 3164 3163 3160 3158 3155 3152 3150 3148 3146 3144 3142 3139
3168 3165 3168 3169 3170 3171 3171 3170 3169 3168 3170 3170 3169 3171 3171 3167 3168 3170 3169 3167 3166 3168 3167 3174 3172 3171 3169 3168 3166 3163 3161 3160 3158 3157 3155 3153 3150 3147 3145 3143 3141 3139 3136 3133
3165 3165 3166 3167 3168 3169 3169 3168 3167 3167 3164 3164 3166 3168 3166 3164 3165 3167 3168 3167 3166 3165 3167 3171 3170 3168 3167 3167 3164 3162 3160 3156 3153 3151 3148 3146 3143 3141 3139 3136 3134 3131 3128 3126
3162 3162 3163 3164 3165 3167 3165 3166 3164 3165 3164 3164 3164 3167 3163 3161 3161 3164 3164 3166 3167 3167 3167 3168 3167 3167 3166 3165 3164 3162 3158 3155 3151 3147 3143 3140 3137 3135 3133 3130 3126 3124 3121 3119
3158 3159 3161 3160 3161 3163 3163 3162 3162 3162 3161 3161 3162 3164 3167 3164 3162 3162 3162 3164 3165 3165 3165 3164 3165 3164 3161 3161 3160 3157 3154 3152 3147 3143 3140 3137 3134 3131 3127 3124 3121 3119 3116 3113
3152 3155 3156 3156 3159 3160 3161 3160 3159 3158 3158 3158 3157 3160 3164 3163 3162 3162 3159 3159 3160 3162 3162 3163 3163 3163 3160 3159 3157 3152 3149 3145 3141 3137 3133 3131 3128 3125 3122 3119 3116 3112 3109 3106
3150 3149 3147 3152 3156 3157 3158 3159 3157 3156 3156 3157 3156 3156 3158 3159 3159 3159 3159 3158 3160 3161 3160 3159 3161 3161 3160 3156 3150 3146 3143 3141 3137 3133 3131 3128 3124 3120 3117 3115 3111 3107 3103 3100
3150 3150 3148 3149 3152 3155 3155 3157 3157 3158 3159 3157 3156 3156 3157 3158 3158 3160 3159 3157 3159 3160 3159 3159 3158 3156 3153 3150 3146 3142 3139 3136 3131 3127 3124 3122 3120 3116 3112 3108 3104 3099 3095 3091
3149 3149 3148 3149 3151 3154 3153 3155 3155 3155 3156 3155 3156 3156 3157 3155 3155 3156 3154 3155 3157 3158 3158 3158 3156 3154 3151 3147 3142 3138 3134 3130 3126 3122 3118 3114 3111 3108 3106 3102 3098 3094 3089 3085
3148 3149 3149 3150 3151 3151 3152 3154 3154 3154 3156 3155 3154 3153 3152 3153 3153 3153 3153 3154 3156 3156 3155 3154 3153 3150 3146 3141 3138 3134 3130 3125 3120 3116 3113 3110 3107 3103 3100 3096 3093 3088 3083 3078
3146 3148 3150 3149 3150 3150 3151 3151 3152 3152 3152 3152 3155 3150 3149 3149 3151 3150 3152 3152 3153 3153 3152 3151 3149 3146 3142 3137 3133 3129 3125 3121 3117 3113 3110 3106 3103 3099 3095 3090 3085 3080 3076 3070
3144 3146 3147 3148 3148 3149 3149 3148 3150 3149 3151 3149 3149 3147 3145 3147 3148 3147 3147 3148 3148 3149 3148 3148 3145 3141 3138 3134 3131 3127 3122 3118 3114 3111 3107 3104 3099 3094 3089 3085 3079 3074 3069 3063
3142 3143 3144 3145 3148 3146 3145 3146 3146 3148 3145 3143 3145 3144 3143 3144 3144 3144 3144 3144 3145 3144 3145 3143 3140 3136 3133 3129 3125 3121 3117 3113 3110 3106 3103 3098 3093 3089 3084 3079 3073 3067 3060 3053
3138 3140 3140 3143 3144 3144 3143 3143 3144 3143 3143 3140 3137 3139 3140 3139 3139 3139 3139 3139 3140 3141 3140 3138 3135 3131 3127 3123 3119 3116 3113 3109 3106 3102 3098 3093 3088 3083 3078 3071 3065 3059 3051 3044
3135 3136 3138 3139 3140 3140 3139 3138 3140 3138 3137 3137 3133 3133 3136 3136 3133 3134 3134 3134 3135 3135 3133 3131 3129 3125 3120 3115 3111 3109 3106 3103 3099 3096 3091 3086 3081 3076 3069 3063 3057 3050 3043 3035
3132 3133 3134 3135 3135 3135 3134 3133 3132 3132 3130 3129 3128 3126 3129 3129 3129 3128 3129 3130 3130 3129 3127 3124 3121 3117 3112 3109 3104 3101 3099 3097 3093 3089 3084 3079 3074 3068 3061 3054 3048 3041 3034 3026
3130 3131 3132 3132 3131 3131 3129 3124 3123 3122 3122 3122 3121 3120 3121 3122 3123 3125 3126 3127 3126 3124 3120 3117 3113 3109 3106 3103 3098 3095 3093 3090 3086 3083 3077 3072 3066 3060 3053 3047 3040 3033 3025 3017
3125 3128 3131 3130 3130 3129 3120 3120 3119 3116 3116 3116 3115 3115 3116 3118 3120 3122 3122 3122 3120 3117 3114 3110 3106 3103 3100 3097 3093 3090 3087 3084 3080 3076 3070 3065 3059 3053 3046 3039 3032 3024 3016 3007
3120 3123 3126 3127 3125 3121 3114 3115 3115 3113 3113 3112 3112 3113 3114 3115 3116 3117 3117 3115 3113 3110 3107 3104 3100 3097 3094 3091 3088 3085 3082 3078 3074 3069 3064 3057 3051 3045 3038 3031 3023 3015 3006 2998
3113 3116 3121 3121 3121 3119 3110 3110 3109 3108 3107 3108 3110 3111 3112 3112 3113 3113 3111 3109 3107 3104 3101 3097 3094 3091 3088 3086 3083 3080 3077 3073 3067 3063 3056 3050 3043 3036 3030 3022 3014 3006 2997 2989
3105 3108 3110 3113 3114 3107 3104 3108 3107 3107 3108 3105 3107 3108 3109 3110 3110 3109 3107 3105 3103 3100 3095 3091 3088 3085 3083 3080 3077 3074 3071 3067 3061 3056 3049 3044 3036 3029 3022 3014 3006 2997 2989 2982
3099 3101 3102 3107 3109 3106 3100 3101 3102 3102 3101 3104 3103 3104 3104 3104 3104 3103 3101 3099 3098 3094 3090 3086 3082 3079 3077 3075 3072 3069 3065 3060 3055 3049 3043 3037 3030 3022 3014 3007 3000 2991 2982 2975
3094 3093 3094 3097 3094 3096 3095 3095 3095 3096 3095 3097 3100 3101 3100 3098 3097 3095 3095 3093 3090 3087 3083 3079 3075 3073 3071 3069 3067 3063 3059 3053 3049 3043 3036 3030 3023 3015 3007 3000 2992 2984 2975 2968
3084 3086 3087 3090 3090 3092 3092 3090 3090 3092 3092 3093 3093 3094 3093 3093 3091 3089 3088 3086 3083 3079 3076 3072 3069 3067 3065 3063 3060 3057 3052 3047 3043 3036 3030 3023 3016 3010 3001 2994 2986 2978 2968 2961
3079 3081 3081 3080 3083 3086 3085 3086 3086 3085 3086 3087 3088 3088 3087 3086 3084 3081 3080 3080 3078 3074 3069 3066 3063 3061 3059 3056 3053 3050 3045 3040 3036 3029 3023 3016 3009 3002 2995 2987 2979 2971 2964 2954
3071 3073 3075 3075 3078 3079 3080 3081 3080 3081 3080 3080 3080 3080 3078 3078 3076 3074 3073 3071 3070 3067 3063 3060 3058 3055 3052 3050 3046 3042 3038 3033 3029 3023 3016 3010 3003 2996 2989 2982 2976 2967 2958 2950
Wind_Speed
4 8 3 3 4 5 7 14 16 18 12 11 3 2 14 14 10 21 19 16 13 24 12 10 2 5 7 8 11 15 18 20 21 22 21 20 18 17 19 21 22 23 24 26
8 11 3 6 9 10 14 17 20 21 15 10 5 5 11 13 14 14 19 16 13 6 2 9 1 2 7 12 16 20 24 24 25 24 24 23 22 20 18 18 19 21 24 27
11 6 4 10 13 14 13 14 15 15 17 11 11 4 6 6 9 12 12 10 10 10 11 14 4 6 9 13 19 24 26 28 28 28 27 25 22 20 20 20 20 22 24 26
15 15 12 12 12 11 18 16 15 13 13 10 8 0 7 5 12 9 7 9 6 5 6 5 7 7 10 18 23 25 27 27 27 27 27 25 24 22 21 23 25 27 28 30
19 12 8 15 12 11 17 12 11 12 11 14 12 1 10 12 16 16 12 6 3 7 12 11 15 13 20 25 29 28 28 29 29 27 26 24 22 20 21 23 26 29 31 32
22 23 22 16 9 8 11 17 20 20 16 6 3 6 9 15 15 16 19 16 17 15 18 21 16 18 24 28 30 29 29 29 29 30 30 28 23 20 21 24 26 28 31 32
5 4 7 23 14 11 11 10 4 2 1 5 4 4 7 10 20 23 21 22 14 13 17 23 22 22 25 29 31 32 31 30 29 30 31 30 30 29 26 25 26 28 30 29
5 1 4 7 17 13 9 8 6 2 1 2 3 6 5 6 5 14 19 23 16 14 23 21 22 27 29 32 31 31 30 28 30 32 32 29 26 26 29 32 32 33 36 38
1 3 5 6 10 8 2 5 3 5 8 2 4 5 9 6 5 11 22 18 17 21 20 20 22 22 28 29 29 29 28 30 32 31 31 31 32 32 32 33 35 37 39 41
5 1 6 6 6 6 8 8 4 3 3 3 2 8 6 13 12 18 20 18 22 21 21 21 22 23 28 29 29 28 29 30 30 30 30 30 31 32 34 36 37 39 41 43
10 5 5 7 4 6 8 7 5 3 4 5 1 4 4 5 12 24 27 25 22 20 22 23 22 26 27 28 27 28 28 28 28 27 28 30 31 33 35 37 39 40 41 42
10 6 7 5 9 7 11 8 5 5 5 6 4 7 8 4 6 16 24 23 22 21 23 22 24 25 28 26 24 25 24 25 24 24 25 27 30 33 35 37 38 40 41 42
11 7 6 5 9 12 12 13 16 12 15 16 9 5 8 11 13 15 18 22 23 22 21 22 25 28 28 24 25 24 24 23 22 23 26 28 30 33 35 37 38 40 43 45
14 12 8 6 6 8 10 14 14 10 10 11 22 15 14 17 20 18 19 20 24 23 21 24 25 28 29 26 26 24 21 20 21 24 26 28 30 33 35 37 40 43 45 47
11 12 12 16 18 18 20 23 17 23 20 17 26 22 21 18 22 23 23 24 21 20 21 22 26 30 30 28 28 25 21 21 23 26 28 29 32 34 36 39 42 45 48 50
18 16 21 24 20 20 27 32 32 30 30 31 31 35 28 23 23 23 24 20 19 19 21 26 29 30 28 28 28 24 21 24 25 28 29 31 33 36 40 42 45 48 50 51
15 15 11 12 14 17 21 29 28 30 33 29 28 26 24 23 20 21 20 17 19 23 27 31 30 30 28 27 25 22 24 26 27 30 31 33 36 39 42 44 47 49 51 51
16 16 14 9 11 3 19 14 14 12 11 17 17 17 20 19 17 17 18 21 24 27 30 31 31 31 27 25 23 24 26 27 29 32 33 35 38 41 44 46 48 51 50 50
19 18 12 9 11 22 37 23 16 13 19 17 15 12 13 16 16 16 16 21 25 28 28 28 30 30 27 22 22 24 26 28 30 33 34 37 40 43 45 48 50 51 50 49
29 27 24 19 5 6 4 3 7 12 20 19 16 12 14 15 16 15 20 24 27 27 27 29 30 27 22 20 22 24 26 28 31 34 36 39 41 44 46 49 50 49 49 48
26 34 33 29 20 18 28 17 11 14 10 13 20 17 17 18 21 21 23 27 28 25 28 30 29 24 19 19 22 24 26 28 32 34 37 39 41 43 46 48 49 49 49 45
23 17 24 33 23 21 15 13 28 27 24 19 15 16 17 20 25 28 28 26 25 26 27 28 25 21 18 20 22 25 26 29 33 35 36 39 41 43 46 47 46 47 47 42
27 30 22 20 22 12 8 16 15 13 15 20 21 18 22 23 25 27 26 30 28 28 28 25 22 19 19 21 22 25 27 30 33 35 37 39 40 42 45 46 45 46 45 41
28 26 26 26 28 27 26 21 18 16 17 19 20 22 21 24 31 31 29 31 27 28 26 23 20 19 21 22 23 25 28 31 33 35 37 38 40 41 43 43 44 44 44 40
28 27 29 31 29 27 25 23 20 21 25 25 25 27 28 29 32 28 29 33 26 26 26 22 20 21 23 23 25 26 29 31 34 36 37 38 40 41 41 42 43 43 40 40
32 29 30 33 25 30 29 23 27 28 27 27 27 31 30 33 31 32 35 38 29 27 27 23 21 22 24 24 26 27 30 31 34 35 36 38 40 40 41 41 39 39 39 37
Wind_Direction
259 260 237 94 349 313 307 302 308 306 315 331 12 296 321 299 282 234 225 234 252 278 269 304 88 88 66 23 359 0 357 350 345 338 333 331 327 314 304 300 298 294 294 294
212 248 95 342 307 261 286 301 303 296 295 308 278 250 310 320 309 268 233 232 259 236 203 261 83 344 346 359 355 355 347 347 349 345 341 337 330 322 313 302 295 293 293 291
243 230 251 292 306 277 279 295 309 305 313 296 317 296 294 292 274 233 220 218 224 248 247 262 237 315 339 352 351 348 350 352 349 344 340 338 332 324 317 309 299 291 289 290
272 265 257 278 277 279 280 283 283 294 294 319 339 268 351 169 181 175 180 183 189 210 226 241 296 295 333 338 339 344 350 350 343 338 336 334 328 324 316 309 305 304 303 303
250 244 244 250 274 279 286 285 282 287 291 298 285 89 124 153 140 140 141 133 237 274 279 280 291 335 336 335 337 343 344 343 337 334 335 333 325 316 308 303 302 303 303 304
268 269 248 241 256 273 288 292 278 282 269 294 269 181 177 170 195 199 207 219 231 255 299 299 308 320 332 333 334 338 340 341 339 337 332 333 327 320 311 312 310 306 307 310
309 330 264 226 248 274 279 290 326 349 72 226 171 170 179 186 213 231 240 251 234 271 277 287 300 315 324 336 337 335 335 333 330 325 323 323 321 324 324 322 318 313 312 312
350 24 162 195 225 247 237 296 218 186 247 283 167 126 183 183 180 226 243 242 247 252 286 293 302 315 328 330 327 326 327 326 323 321 321 322 322 321 323 325 324 323 322 321
18 128 151 181 208 231 218 220 207 230 263 216 148 149 156 184 186 210 205 217 214 261 269 282 304 309 320 320 321 322 323 322 319 319 320 322 325 325 326 324 323 321 317 314
201 230 212 214 210 232 244 243 227 167 160 207 200 181 220 210 205 189 198 212 246 271 278 294 299 311 319 324 325 324 322 319 318 317 318 318 318 319 321 320 316 314 313 312
219 198 156 238 242 233 208 232 238 184 191 158 196 217 197 233 208 212 215 236 247 268 282 289 295 310 322 325 325 323 320 317 315 314 313 314 315 315 313 313 314 314 313 311
219 213 205 194 215 223 225 195 221 225 209 195 199 251 244 209 208 228 238 238 258 273 277 287 301 315 320 319 318 318 316 312 307 306 307 309 310 312 314 313 312 312 312 314
207 211 212 212 225 240 243 245 251 243 237 210 176 221 182 225 215 242 245 251 257 267 285 298 310 316 316 318 323 320 317 310 306 309 311 311 313 313 312 312 313 315 317 318
209 220 222 243 239 259 257 242 220 216 236 230 223 231 243 276 275 252 241 252 273 284 295 308 310 313 312 315 320 319 314 308 311 312 312 313 314 313 313 316 319 321 320 318
215 231 241 254 262 264 267 266 250 234 242 252 259 257 263 266 272 260 262 269 277 288 302 306 312 314 313 316 319 319 316 316 318 316 314 317 316 317 320 321 321 322 321 321
236 254 265 268 266 267 267 264 262 249 250 254 260 269 270 259 258 251 259 266 281 295 307 315 315 313 315 316 317 318 317 319 322 317 318 319 319 321 323 323 324 323 323 322
230 238 246 263 272 291 280 273 270 270 265 261 262 266 266 259 245 242 251 266 282 302 315 319 317 318 318 315 315 316 319 321 324 318 320 322 323 325 324 325 324 324 323 322
231 234 247 267 286 289 283 248 247 248 260 237 259 262 254 253 240 245 260 276 294 306 315 316 314 316 315 317 314 315 320 324 323 319 321 323 325 325 324 324 324 324 323 325
230 232 233 241 241 278 282 273 246 260 246 253 260 257 239 238 245 257 276 297 308 314 312 309 311 313 315 312 309 315 321 322 321 318 322 325 326 325 326 325 325 325 326 328
229 239 236 237 211 241 273 217 229 253 252 249 248 247 256 251 254 275 294 304 313 313 311 310 312 310 307 305 311 317 320 321 319 319 325 326 326 326 326 326 326 327 328 329
218 226 229 236 240 259 267 255 247 234 262 263 251 249 263 268 272 276 289 306 311 306 312 311 309 305 302 309 315 317 320 319 317 322 326 326 326 327 326 327 328 328 329 329
220 214 219 230 237 254 275 263 240 253 259 265 273 285 287 287 285 287 296 311 312 311 310 309 305 299 303 310 314 317 318 316 318 323 325 326 327 327 327 328 328 328 328 327
235 234 227 218 232 250 287 291 278 259 268 263 265 266 291 285 294 289 295 312 317 309 309 309 300 296 303 310 315 316 316 317 320 323 326 326 328 327 328 329 329 329 328 327
237 235 239 243 246 261 269 271 267 271 262 253 260 272 289 275 296 293 298 316 315 309 305 304 295 297 304 311 315 315 316 319 321 324 326 327 327 328 330 330 330 330 329 327
238 241 243 249 254 261 260 259 263 259 263 262 265 275 290 292 299 285 295 314 305 314 306 301 294 296 305 314 312 315 316 321 322 325 327 328 328 329 331 331 331 332 331 327
239 239 238 247 254 258 261 259 247 254 255 265 268 281 287 299 291 291 297 304 299 308 309 299 292 297 307 310 309 314 316 321 322 326 327 327 328 330 331 331 332 332 331 328